Year,Month,Day,Hour,Minute,Value (Times are PST for temperature in C)
2006,08,15,00,00,14.00
2006,08,15,00,01,14.00
2006,08,15,00,02,14.00
2006,08,15,00,03,14.00
2006,08,15,00,04,14.00
2006,08,15,00,05,13.90
2006,08,15,00,06,13.90
2006,08,15,00,07,13.90
2006,08,15,00,08,13.90
2006,08,15,00,09,13.90
2006,08,15,00,10,13.90
2006,08,15,00,11,13.90
2006,08,15,00,12,13.90
2006,08,15,00,13,13.90
2006,08,15,00,14,13.90
2006,08,15,00,15,13.90
2006,08,15,00,16,13.90
2006,08,15,00,17,13.90
2006,08,15,00,18,13.90
2006,08,15,00,19,13.90
2006,08,15,00,20,13.90
2006,08,15,00,21,13.90
2006,08,15,00,22,13.90
2006,08,15,00,23,14.00
2006,08,15,00,24,14.00
2006,08,15,00,25,14.00
2006,08,15,00,26,14.00
2006,08,15,00,27,14.00
2006,08,15,00,28,14.00
2006,08,15,00,29,14.00
2006,08,15,00,30,14.00
2006,08,15,00,31,14.00
2006,08,15,00,32,14.00
2006,08,15,00,33,14.00
2006,08,15,00,34,14.00
2006,08,15,00,35,14.00
2006,08,15,00,36,13.90
2006,08,15,00,37,13.90
2006,08,15,00,38,13.90
2006,08,15,00,39,13.90
2006,08,15,00,40,13.90
2006,08,15,00,41,13.90
2006,08,15,00,42,13.90
2006,08,15,00,43,13.90
2006,08,15,00,44,13.90
2006,08,15,00,45,13.80
2006,08,15,00,46,13.80
2006,08,15,00,47,13.80
2006,08,15,00,48,13.80
2006,08,15,00,49,13.80
2006,08,15,00,50,13.70
2006,08,15,00,51,13.70
2006,08,15,00,52,13.70
2006,08,15,00,53,13.70
2006,08,15,00,54,13.60
2006,08,15,00,55,13.60
2006,08,15,00,56,13.60
2006,08,15,00,57,13.60
2006,08,15,00,58,13.60
2006,08,15,00,59,13.60
2006,08,15,01,00,13.50
2006,08,15,01,01,13.50
2006,08,15,01,02,13.50
2006,08,15,01,03,13.50
2006,08,15,01,04,13.50
2006,08,15,01,05,13.50
2006,08,15,01,06,13.50
2006,08,15,01,07,13.50
2006,08,15,01,08,13.50
2006,08,15,01,09,13.50
2006,08,15,01,10,13.50
2006,08,15,01,11,13.50
2006,08,15,01,12,13.50
2006,08,15,01,13,13.50
2006,08,15,01,14,13.50
2006,08,15,01,15,13.60
2006,08,15,01,16,13.50
2006,08,15,01,17,13.50
2006,08,15,01,18,13.50
2006,08,15,01,19,13.50
2006,08,15,01,20,13.40
2006,08,15,01,21,13.30
2006,08,15,01,22,13.30
2006,08,15,01,23,13.30
2006,08,15,01,24,13.30
2006,08,15,01,25,13.30
2006,08,15,01,26,13.30
2006,08,15,01,27,13.30
2006,08,15,01,28,13.30
2006,08,15,01,29,13.30
2006,08,15,01,30,13.30
2006,08,15,01,31,13.30
2006,08,15,01,32,13.30
2006,08,15,01,33,13.30
2006,08,15,01,34,13.30
2006,08,15,01,35,13.30
2006,08,15,01,36,13.30
2006,08,15,01,37,13.30
2006,08,15,01,38,13.20
2006,08,15,01,39,13.20
2006,08,15,01,40,13.20
2006,08,15,01,41,13.20
2006,08,15,01,42,13.20
2006,08,15,01,43,13.20
2006,08,15,01,44,13.20
2006,08,15,01,45,13.20
2006,08,15,01,46,13.10
2006,08,15,01,47,13.00
2006,08,15,01,48,12.90
2006,08,15,01,49,12.80
2006,08,15,01,50,12.80
2006,08,15,01,51,12.80
2006,08,15,01,52,12.70
2006,08,15,01,53,12.70
2006,08,15,01,54,12.70
2006,08,15,01,55,12.60
2006,08,15,01,56,12.50
2006,08,15,01,57,12.50
2006,08,15,01,58,12.40
2006,08,15,01,59,12.40
2006,08,15,02,00,12.40
2006,08,15,02,01,12.30
2006,08,15,02,02,12.30
2006,08,15,02,03,12.30
2006,08,15,02,04,12.30
2006,08,15,02,05,12.30
2006,08,15,02,06,12.30
2006,08,15,02,07,12.30
2006,08,15,02,08,12.30
2006,08,15,02,09,12.30
2006,08,15,02,10,12.30
2006,08,15,02,11,12.30
2006,08,15,02,12,12.30
2006,08,15,02,13,12.30
2006,08,15,02,14,12.30
2006,08,15,02,15,12.30
2006,08,15,02,16,12.30
2006,08,15,02,17,12.30
2006,08,15,02,18,12.30
2006,08,15,02,19,12.30
2006,08,15,02,20,12.30
2006,08,15,02,21,12.30
2006,08,15,02,22,12.30
2006,08,15,02,23,12.30
2006,08,15,02,24,12.30
2006,08,15,02,25,12.30
2006,08,15,02,26,12.30
2006,08,15,02,27,12.30
2006,08,15,02,28,12.30
2006,08,15,02,29,12.30
2006,08,15,02,30,12.30
2006,08,15,02,31,12.40
2006,08,15,02,32,12.40
2006,08,15,02,33,12.40
2006,08,15,02,34,12.40
2006,08,15,02,35,12.40
2006,08,15,02,36,12.40
2006,08,15,02,37,12.40
2006,08,15,02,38,12.50
2006,08,15,02,39,12.50
2006,08,15,02,40,12.50
2006,08,15,02,41,12.50
2006,08,15,02,42,12.50
2006,08,15,02,43,12.50
2006,08,15,02,44,12.60
2006,08,15,02,45,12.60
2006,08,15,02,46,12.60
2006,08,15,02,47,12.60
2006,08,15,02,48,12.60
2006,08,15,02,49,12.70
2006,08,15,02,50,12.70
2006,08,15,02,51,12.70
2006,08,15,02,52,12.70
2006,08,15,02,53,12.70
2006,08,15,02,54,12.80
2006,08,15,02,55,12.80
2006,08,15,02,56,12.80
2006,08,15,02,57,12.80
2006,08,15,02,58,12.80
2006,08,15,02,59,12.80
2006,08,15,03,00,12.80
2006,08,15,03,01,12.80
2006,08,15,03,02,12.80
2006,08,15,03,03,12.80
2006,08,15,03,04,12.80
2006,08,15,03,05,12.70
2006,08,15,03,06,12.70
2006,08,15,03,07,12.70
2006,08,15,03,08,12.70
2006,08,15,03,09,12.70
2006,08,15,03,10,12.70
2006,08,15,03,11,12.70
2006,08,15,03,12,12.70
2006,08,15,03,13,12.70
2006,08,15,03,14,12.70
2006,08,15,03,15,12.70
2006,08,15,03,16,12.70
2006,08,15,03,17,12.60
2006,08,15,03,18,12.60
2006,08,15,03,19,12.60
2006,08,15,03,20,12.60
2006,08,15,03,21,12.60
2006,08,15,03,22,12.60
2006,08,15,03,23,12.60
2006,08,15,03,24,12.60
2006,08,15,03,25,12.60
2006,08,15,03,26,12.50
2006,08,15,03,27,12.50
2006,08,15,03,28,12.50
2006,08,15,03,29,12.50
2006,08,15,03,30,12.50
2006,08,15,03,31,12.50
2006,08,15,03,32,12.50
2006,08,15,03,33,12.50
2006,08,15,03,34,12.50
2006,08,15,03,35,12.60
2006,08,15,03,36,12.60
2006,08,15,03,37,12.60
2006,08,15,03,38,12.50
2006,08,15,03,39,12.50
2006,08,15,03,40,12.50
2006,08,15,03,41,12.50
2006,08,15,03,42,12.50
2006,08,15,03,43,12.50
2006,08,15,03,44,12.50
2006,08,15,03,45,12.40
2006,08,15,03,46,12.40
2006,08,15,03,47,12.40
2006,08,15,03,48,12.40
2006,08,15,03,49,12.40
2006,08,15,03,50,12.30
2006,08,15,03,51,12.30
2006,08,15,03,52,12.30
2006,08,15,03,53,12.30
2006,08,15,03,54,12.30
2006,08,15,03,55,12.30
2006,08,15,03,56,12.30
2006,08,15,03,57,12.30
2006,08,15,03,58,12.30
2006,08,15,03,59,12.30
2006,08,15,04,00,12.30
2006,08,15,04,01,12.30
2006,08,15,04,02,12.30
2006,08,15,04,03,12.30
2006,08,15,04,04,12.30
2006,08,15,04,05,12.30
2006,08,15,04,06,12.20
2006,08,15,04,07,12.20
2006,08,15,04,08,12.20
2006,08,15,04,09,12.20
2006,08,15,04,10,12.20
2006,08,15,04,11,12.20
2006,08,15,04,12,12.10
2006,08,15,04,13,12.00
2006,08,15,04,14,11.80
2006,08,15,04,15,11.80
2006,08,15,04,16,11.80
2006,08,15,04,17,11.80
2006,08,15,04,18,11.90
2006,08,15,04,19,11.90
2006,08,15,04,20,11.90
2006,08,15,04,21,11.90
2006,08,15,04,22,11.90
2006,08,15,04,23,11.90
2006,08,15,04,24,11.90
2006,08,15,04,25,11.90
2006,08,15,04,26,11.90
2006,08,15,04,27,11.90
2006,08,15,04,28,11.90
2006,08,15,04,29,11.90
2006,08,15,04,30,11.90
2006,08,15,04,31,11.90
2006,08,15,04,32,11.90
2006,08,15,04,33,11.80
2006,08,15,04,34,11.90
2006,08,15,04,35,11.90
2006,08,15,04,36,11.90
2006,08,15,04,37,11.90
2006,08,15,04,38,12.00
2006,08,15,04,39,12.00
2006,08,15,04,40,12.10
2006,08,15,04,41,12.10
2006,08,15,04,42,12.10
2006,08,15,04,43,12.20
2006,08,15,04,44,12.20
2006,08,15,04,45,12.30
2006,08,15,04,46,12.30
2006,08,15,04,47,12.30
2006,08,15,04,48,12.30
2006,08,15,04,49,12.30
2006,08,15,04,50,12.30
2006,08,15,04,51,12.30
2006,08,15,04,52,12.30
2006,08,15,04,53,12.30
2006,08,15,04,54,12.30
2006,08,15,04,55,12.30
2006,08,15,04,56,12.30
2006,08,15,04,57,12.30
2006,08,15,04,58,12.30
2006,08,15,04,59,12.30
2006,08,15,05,00,12.30
2006,08,15,05,01,12.20
2006,08,15,05,02,12.20
2006,08,15,05,03,12.20
2006,08,15,05,04,12.20
2006,08,15,05,05,12.20
2006,08,15,05,06,12.20
2006,08,15,05,07,12.10
2006,08,15,05,08,12.10
2006,08,15,05,09,12.10
2006,08,15,05,10,12.10
2006,08,15,05,11,12.10
2006,08,15,05,12,12.10
2006,08,15,05,13,12.00
2006,08,15,05,14,12.00
2006,08,15,05,15,12.00
2006,08,15,05,16,12.00
2006,08,15,05,17,12.00
2006,08,15,05,18,11.90
2006,08,15,05,19,11.90
2006,08,15,05,20,11.90
2006,08,15,05,21,11.90
2006,08,15,05,22,11.80
2006,08,15,05,23,11.80
2006,08,15,05,24,11.80
2006,08,15,05,25,11.80
2006,08,15,05,26,11.80
2006,08,15,05,27,11.80
2006,08,15,05,28,11.80
2006,08,15,05,29,11.80
2006,08,15,05,30,11.80
2006,08,15,05,31,11.90
2006,08,15,05,32,11.90
2006,08,15,05,33,11.90
2006,08,15,05,34,11.90
2006,08,15,05,35,11.90
2006,08,15,05,36,11.90
2006,08,15,05,37,11.80
2006,08,15,05,38,11.80
2006,08,15,05,39,11.80
2006,08,15,05,40,11.80
2006,08,15,05,41,11.70
2006,08,15,05,42,11.70
2006,08,15,05,43,11.60
2006,08,15,05,44,11.60
2006,08,15,05,45,11.60
2006,08,15,05,46,11.50
2006,08,15,05,47,11.40
2006,08,15,05,48,11.40
2006,08,15,05,49,11.40
2006,08,15,05,50,11.40
2006,08,15,05,51,11.30
2006,08,15,05,52,11.30
2006,08,15,05,53,11.30
2006,08,15,05,54,11.20
2006,08,15,05,55,11.20
2006,08,15,05,56,11.20
2006,08,15,05,57,11.20
2006,08,15,05,58,11.10
2006,08,15,05,59,11.10
2006,08,15,06,00,11.10
2006,08,15,06,01,11.10
2006,08,15,06,02,11.10
2006,08,15,06,03,11.10
2006,08,15,06,04,11.10
2006,08,15,06,05,11.10
2006,08,15,06,06,11.10
2006,08,15,06,07,11.00
2006,08,15,06,08,10.90
2006,08,15,06,09,10.90
2006,08,15,06,10,10.90
2006,08,15,06,11,10.90
2006,08,15,06,12,10.90
2006,08,15,06,13,10.90
2006,08,15,06,14,10.90
2006,08,15,06,15,10.90
2006,08,15,06,16,10.90
2006,08,15,06,17,10.90
2006,08,15,06,18,10.90
2006,08,15,06,19,10.90
2006,08,15,06,20,10.90
2006,08,15,06,21,10.90
2006,08,15,06,22,10.90
2006,08,15,06,23,10.90
2006,08,15,06,24,10.90
2006,08,15,06,25,10.90
2006,08,15,06,26,11.10
2006,08,15,06,27,11.10
2006,08,15,06,28,11.20
2006,08,15,06,29,11.30
2006,08,15,06,30,11.40
2006,08,15,06,31,11.40
2006,08,15,06,32,11.50
2006,08,15,06,33,11.60
2006,08,15,06,34,11.60
2006,08,15,06,35,11.70
2006,08,15,06,36,11.80
2006,08,15,06,37,11.80
2006,08,15,06,38,11.80
2006,08,15,06,39,11.80
2006,08,15,06,40,11.90
2006,08,15,06,41,11.90
2006,08,15,06,42,12.00
2006,08,15,06,43,12.00
2006,08,15,06,44,12.00
2006,08,15,06,45,12.00
2006,08,15,06,46,12.00
2006,08,15,06,47,12.00
2006,08,15,06,48,12.00
2006,08,15,06,49,12.00
2006,08,15,06,50,12.00
2006,08,15,06,51,12.00
2006,08,15,06,52,12.00
2006,08,15,06,53,12.00
2006,08,15,06,54,12.00
2006,08,15,06,55,12.00
2006,08,15,06,56,12.00
2006,08,15,06,57,12.00
2006,08,15,06,58,12.00
2006,08,15,06,59,11.90
2006,08,15,07,00,11.90
2006,08,15,07,01,11.90
2006,08,15,07,02,11.90
2006,08,15,07,03,11.90
2006,08,15,07,04,11.90
2006,08,15,07,05,12.00
2006,08,15,07,06,12.00
2006,08,15,07,07,12.00
2006,08,15,07,08,12.10
2006,08,15,07,09,12.10
2006,08,15,07,10,12.20
2006,08,15,07,11,12.20
2006,08,15,07,12,12.30
2006,08,15,07,13,12.30
2006,08,15,07,14,12.30
2006,08,15,07,15,12.30
2006,08,15,07,16,12.30
2006,08,15,07,17,12.40
2006,08,15,07,18,12.40
2006,08,15,07,19,12.40
2006,08,15,07,20,12.40
2006,08,15,07,21,12.50
2006,08,15,07,22,12.50
2006,08,15,07,23,12.50
2006,08,15,07,24,12.50
2006,08,15,07,25,12.50
2006,08,15,07,26,12.50
2006,08,15,07,27,12.50
2006,08,15,07,28,12.60
2006,08,15,07,29,12.60
2006,08,15,07,30,12.70
2006,08,15,07,31,12.70
2006,08,15,07,32,12.80
2006,08,15,07,33,12.80
2006,08,15,07,34,12.80
2006,08,15,07,35,12.80
2006,08,15,07,36,12.80
2006,08,15,07,37,12.80
2006,08,15,07,38,12.80
2006,08,15,07,39,12.80
2006,08,15,07,40,12.80
2006,08,15,07,41,12.80
2006,08,15,07,42,12.80
2006,08,15,07,43,12.80
2006,08,15,07,44,12.70
2006,08,15,07,45,12.70
2006,08,15,07,46,12.70
2006,08,15,07,47,12.60
2006,08,15,07,48,12.60
2006,08,15,07,49,12.60
2006,08,15,07,50,12.60
2006,08,15,07,51,12.60
2006,08,15,07,52,12.50
2006,08,15,07,53,12.50
2006,08,15,07,54,12.40
2006,08,15,07,55,12.30
2006,08,15,07,56,12.30
2006,08,15,07,57,12.20
2006,08,15,07,58,12.10
2006,08,15,07,59,12.10
2006,08,15,08,00,12.00
2006,08,15,08,01,12.00
2006,08,15,08,02,11.90
2006,08,15,08,03,11.90
2006,08,15,08,04,11.90
2006,08,15,08,05,11.90
2006,08,15,08,06,11.90
2006,08,15,08,07,11.90
2006,08,15,08,08,11.80
2006,08,15,08,09,11.80
2006,08,15,08,10,11.80
2006,08,15,08,11,11.80
2006,08,15,08,12,11.80
2006,08,15,08,13,11.80
2006,08,15,08,14,11.80
2006,08,15,08,15,11.80
2006,08,15,08,16,11.80
2006,08,15,08,17,11.80
2006,08,15,08,18,11.80
2006,08,15,08,19,11.80
2006,08,15,08,20,11.80
2006,08,15,08,21,11.80
2006,08,15,08,22,11.80
2006,08,15,08,23,11.80
2006,08,15,08,24,11.90
2006,08,15,08,25,12.00
2006,08,15,08,26,12.00
2006,08,15,08,27,12.00
2006,08,15,08,28,12.00
2006,08,15,08,29,12.00
2006,08,15,08,30,12.00
2006,08,15,08,31,12.00
2006,08,15,08,32,12.00
2006,08,15,08,33,12.10
2006,08,15,08,34,12.10
2006,08,15,08,35,12.10
2006,08,15,08,36,12.10
2006,08,15,08,37,12.10
2006,08,15,08,38,12.00
2006,08,15,08,39,12.00
2006,08,15,08,40,11.90
2006,08,15,08,41,11.90
2006,08,15,08,42,11.90
2006,08,15,08,43,11.90
2006,08,15,08,44,11.90
2006,08,15,08,45,11.90
2006,08,15,08,46,11.90
2006,08,15,08,47,11.90
2006,08,15,08,48,11.90
2006,08,15,08,49,12.00
2006,08,15,08,50,12.00
2006,08,15,08,51,12.10
2006,08,15,08,52,12.20
2006,08,15,08,53,12.30
2006,08,15,08,54,12.30
2006,08,15,08,55,12.30
2006,08,15,08,56,12.30
2006,08,15,08,57,12.30
2006,08,15,08,58,12.30
2006,08,15,08,59,12.30
2006,08,15,09,00,12.20
2006,08,15,09,01,12.10
2006,08,15,09,02,12.10
2006,08,15,09,03,12.10
2006,08,15,09,04,12.00
2006,08,15,09,05,12.00
2006,08,15,09,06,12.00
2006,08,15,09,07,12.00
2006,08,15,09,08,12.00
2006,08,15,09,09,11.90
2006,08,15,09,10,11.90
2006,08,15,09,11,12.00
2006,08,15,09,12,12.00
2006,08,15,09,13,12.00
2006,08,15,09,14,12.10
2006,08,15,09,15,12.10
2006,08,15,09,16,12.00
2006,08,15,09,17,12.00
2006,08,15,09,18,12.00
2006,08,15,09,19,12.00
2006,08,15,09,20,12.00
2006,08,15,09,21,12.00
2006,08,15,09,22,12.00
2006,08,15,09,23,12.00
2006,08,15,09,24,12.10
2006,08,15,09,25,12.10
2006,08,15,09,26,12.10
2006,08,15,09,27,12.10
2006,08,15,09,28,12.20
2006,08,15,09,29,12.20
2006,08,15,09,30,12.20
2006,08,15,09,31,12.30
2006,08,15,09,32,12.30
2006,08,15,09,33,12.30
2006,08,15,09,34,12.30
2006,08,15,09,35,12.30
2006,08,15,09,36,12.30
2006,08,15,09,37,12.30
2006,08,15,09,38,12.30
2006,08,15,09,39,12.30
2006,08,15,09,40,12.30
2006,08,15,09,41,12.30
2006,08,15,09,42,12.40
2006,08,15,09,43,12.40
2006,08,15,09,44,12.40
2006,08,15,09,45,12.50
2006,08,15,09,46,12.50
2006,08,15,09,47,12.60
2006,08,15,09,48,12.60
2006,08,15,09,49,12.60
2006,08,15,09,50,12.60
2006,08,15,09,51,12.70
2006,08,15,09,52,12.70
2006,08,15,09,53,12.80
2006,08,15,09,54,12.80
2006,08,15,09,55,12.80
2006,08,15,09,56,12.80
2006,08,15,09,57,12.80
2006,08,15,09,58,12.80
2006,08,15,09,59,12.80
2006,08,15,10,00,12.80
2006,08,15,10,01,12.80
2006,08,15,10,02,12.80
2006,08,15,10,03,12.80
2006,08,15,10,04,12.80
2006,08,15,10,05,12.80
2006,08,15,10,06,12.80
2006,08,15,10,07,12.80
2006,08,15,10,08,12.80
2006,08,15,10,09,12.80
2006,08,15,10,10,12.90
2006,08,15,10,11,13.00
2006,08,15,10,12,13.00
2006,08,15,10,13,13.10
2006,08,15,10,14,13.10
2006,08,15,10,15,13.20
2006,08,15,10,16,13.30
2006,08,15,10,17,13.40
2006,08,15,10,18,13.50
2006,08,15,10,19,13.50
2006,08,15,10,20,13.60
2006,08,15,10,21,13.60
2006,08,15,10,22,13.70
2006,08,15,10,23,13.70
2006,08,15,10,24,13.70
2006,08,15,10,25,13.60
2006,08,15,10,26,13.70
2006,08,15,10,27,13.70
2006,08,15,10,28,13.70
2006,08,15,10,29,13.70
2006,08,15,10,30,13.70
2006,08,15,10,31,13.60
2006,08,15,10,32,13.60
2006,08,15,10,33,13.60
2006,08,15,10,34,13.60
2006,08,15,10,35,13.50
2006,08,15,10,36,13.50
2006,08,15,10,37,13.50
2006,08,15,10,38,13.60
2006,08,15,10,39,13.60
2006,08,15,10,40,13.60
2006,08,15,10,41,13.70
2006,08,15,10,42,13.80
2006,08,15,10,43,13.90
2006,08,15,10,44,13.90
2006,08,15,10,45,14.00
2006,08,15,10,46,14.10
2006,08,15,10,47,14.20
2006,08,15,10,48,14.30
2006,08,15,10,49,14.50
2006,08,15,10,50,14.70
2006,08,15,10,51,14.90
2006,08,15,10,52,15.00
2006,08,15,10,53,15.00
2006,08,15,10,54,14.90
2006,08,15,10,55,14.80
2006,08,15,10,56,14.70
2006,08,15,10,57,14.70
2006,08,15,10,58,14.70
2006,08,15,10,59,14.70
2006,08,15,11,00,14.70
2006,08,15,11,01,14.80
2006,08,15,11,02,14.80
2006,08,15,11,03,15.00
2006,08,15,11,04,15.20
2006,08,15,11,05,15.40
2006,08,15,11,06,15.50
2006,08,15,11,07,15.60
2006,08,15,11,08,15.70
2006,08,15,11,09,15.80
2006,08,15,11,10,15.80
2006,08,15,11,11,15.90
2006,08,15,11,12,15.90
2006,08,15,11,13,16.00
2006,08,15,11,14,15.90
2006,08,15,11,15,15.90
2006,08,15,11,16,15.80
2006,08,15,11,17,15.80
2006,08,15,11,18,15.90
2006,08,15,11,19,15.80
2006,08,15,11,20,15.90
2006,08,15,11,21,15.90
2006,08,15,11,22,16.00
2006,08,15,11,23,16.10
2006,08,15,11,24,16.30
2006,08,15,11,25,16.40
2006,08,15,11,26,16.40
2006,08,15,11,27,16.30
2006,08,15,11,28,16.20
2006,08,15,11,29,16.20
2006,08,15,11,30,16.20
2006,08,15,11,31,16.20
2006,08,15,11,32,16.10
2006,08,15,11,33,16.10
2006,08,15,11,34,16.20
2006,08,15,11,35,16.20
2006,08,15,11,36,16.10
2006,08,15,11,37,16.10
2006,08,15,11,38,16.10
2006,08,15,11,39,16.00
2006,08,15,11,40,15.80
2006,08,15,11,41,15.80
2006,08,15,11,42,15.90
2006,08,15,11,43,16.00
2006,08,15,11,44,16.10
2006,08,15,11,45,16.30
2006,08,15,11,46,16.40
2006,08,15,11,47,16.40
2006,08,15,11,48,16.40
2006,08,15,11,49,16.60
2006,08,15,11,50,16.70
2006,08,15,11,51,16.70
2006,08,15,11,52,16.70
2006,08,15,11,53,16.70
2006,08,15,11,54,16.70
2006,08,15,11,55,16.70
2006,08,15,11,56,16.70
2006,08,15,11,57,16.80
2006,08,15,11,58,16.90
2006,08,15,11,59,17.00
2006,08,15,12,00,16.90
2006,08,15,12,01,16.90
2006,08,15,12,02,16.90
2006,08,15,12,03,16.90
2006,08,15,12,04,16.80
2006,08,15,12,05,16.80
2006,08,15,12,06,16.80
2006,08,15,12,07,16.70
2006,08,15,12,08,16.40
2006,08,15,12,09,16.20
2006,08,15,12,10,16.30
2006,08,15,12,11,16.30
2006,08,15,12,12,16.40
2006,08,15,12,13,16.60
2006,08,15,12,14,16.80
2006,08,15,12,15,16.90
2006,08,15,12,16,17.00
2006,08,15,12,17,17.00
2006,08,15,12,18,17.00
2006,08,15,12,19,17.00
2006,08,15,12,20,17.00
2006,08,15,12,21,17.00
2006,08,15,12,22,17.10
2006,08,15,12,23,17.10
2006,08,15,12,24,17.20
2006,08,15,12,25,17.20
2006,08,15,12,26,17.30
2006,08,15,12,27,17.30
2006,08,15,12,28,17.30
2006,08,15,12,29,17.30
2006,08,15,12,30,17.30
2006,08,15,12,31,17.20
2006,08,15,12,32,17.20
2006,08,15,12,33,17.20
2006,08,15,12,34,17.30
2006,08,15,12,35,17.30
2006,08,15,12,36,17.30
2006,08,15,12,37,17.30
2006,08,15,12,38,17.30
2006,08,15,12,39,17.40
2006,08,15,12,40,17.50
2006,08,15,12,41,17.50
2006,08,15,12,42,17.60
2006,08,15,12,43,17.70
2006,08,15,12,44,17.80
2006,08,15,12,45,17.90
2006,08,15,12,46,17.90
2006,08,15,12,47,17.90
2006,08,15,12,48,17.60
2006,08,15,12,49,17.40
2006,08,15,12,50,17.40
2006,08,15,12,51,17.40
2006,08,15,12,52,17.40
2006,08,15,12,53,17.40
2006,08,15,12,54,17.40
2006,08,15,12,55,17.30
2006,08,15,12,56,17.30
2006,08,15,12,57,17.30
2006,08,15,12,58,17.30
2006,08,15,12,59,17.30
2006,08,15,13,00,17.30
2006,08,15,13,01,17.30
2006,08,15,13,02,17.30
2006,08,15,13,03,17.20
2006,08,15,13,04,17.10
2006,08,15,13,05,17.20
2006,08,15,13,06,17.30
2006,08,15,13,07,17.30
2006,08,15,13,08,17.40
2006,08,15,13,09,17.60
2006,08,15,13,10,17.80
2006,08,15,13,11,17.80
2006,08,15,13,12,17.70
2006,08,15,13,13,17.60
2006,08,15,13,14,17.50
2006,08,15,13,15,17.50
2006,08,15,13,16,17.40
2006,08,15,13,17,17.30
2006,08,15,13,18,17.10
2006,08,15,13,19,16.90
2006,08,15,13,20,16.80
2006,08,15,13,21,16.80
2006,08,15,13,22,16.90
2006,08,15,13,23,17.00
2006,08,15,13,24,17.00
2006,08,15,13,25,17.00
2006,08,15,13,26,17.10
2006,08,15,13,27,17.30
2006,08,15,13,28,17.40
2006,08,15,13,29,17.50
2006,08,15,13,30,17.60
2006,08,15,13,31,17.90
2006,08,15,13,32,18.00
2006,08,15,13,33,18.10
2006,08,15,13,34,18.50
2006,08,15,13,35,18.70
2006,08,15,13,36,18.90
2006,08,15,13,37,18.90
2006,08,15,13,38,18.90
2006,08,15,13,39,18.90
2006,08,15,13,40,19.00
2006,08,15,13,41,19.20
2006,08,15,13,42,19.30
2006,08,15,13,43,19.20
2006,08,15,13,44,19.10
2006,08,15,13,45,19.10
2006,08,15,13,46,18.90
2006,08,15,13,47,18.70
2006,08,15,13,48,18.60
2006,08,15,13,49,18.60
2006,08,15,13,50,18.60
2006,08,15,13,51,18.70
2006,08,15,13,52,18.80
2006,08,15,13,53,18.70
2006,08,15,13,54,18.60
2006,08,15,13,55,18.70
2006,08,15,13,56,18.80
2006,08,15,13,57,18.90
2006,08,15,13,58,18.90
2006,08,15,13,59,18.90
2006,08,15,14,00,18.90
2006,08,15,14,01,18.80
2006,08,15,14,02,18.80
2006,08,15,14,03,18.90
2006,08,15,14,04,19.10
2006,08,15,14,05,19.20
2006,08,15,14,06,19.30
2006,08,15,14,07,19.30
2006,08,15,14,08,19.30
2006,08,15,14,09,19.20
2006,08,15,14,10,19.10
2006,08,15,14,11,19.00
2006,08,15,14,12,18.90
2006,08,15,14,13,19.00
2006,08,15,14,14,19.10
2006,08,15,14,15,19.10
2006,08,15,14,16,19.10
2006,08,15,14,17,19.00
2006,08,15,14,18,18.90
2006,08,15,14,19,18.90
2006,08,15,14,20,19.00
2006,08,15,14,21,19.10
2006,08,15,14,22,19.10
2006,08,15,14,23,19.30
2006,08,15,14,24,19.40
2006,08,15,14,25,19.50
2006,08,15,14,26,19.60
2006,08,15,14,27,19.70
2006,08,15,14,28,19.80
2006,08,15,14,29,19.90
2006,08,15,14,30,19.90
2006,08,15,14,31,20.00
2006,08,15,14,32,20.10
2006,08,15,14,33,19.90
2006,08,15,14,34,19.90
2006,08,15,14,35,19.90
2006,08,15,14,36,19.80
2006,08,15,14,37,19.80
2006,08,15,14,38,19.90
2006,08,15,14,39,20.10
2006,08,15,14,40,20.40
2006,08,15,14,41,20.50
2006,08,15,14,42,20.40
2006,08,15,14,43,20.40
2006,08,15,14,44,20.30
2006,08,15,14,45,20.20
2006,08,15,14,46,20.10
2006,08,15,14,47,19.90
2006,08,15,14,48,19.70
2006,08,15,14,49,19.70
2006,08,15,14,50,19.70
2006,08,15,14,51,19.80
2006,08,15,14,52,19.80
2006,08,15,14,53,19.60
2006,08,15,14,54,19.60
2006,08,15,14,55,19.40
2006,08,15,14,56,19.30
2006,08,15,14,57,19.30
2006,08,15,14,58,19.30
2006,08,15,14,59,19.30
2006,08,15,15,00,19.40
2006,08,15,15,01,19.60
2006,08,15,15,02,19.70
2006,08,15,15,03,19.70
2006,08,15,15,04,19.60
2006,08,15,15,05,19.60
2006,08,15,15,06,19.50
2006,08,15,15,07,19.40
2006,08,15,15,08,19.40
2006,08,15,15,09,19.40
2006,08,15,15,10,19.30
2006,08,15,15,11,19.40
2006,08,15,15,12,19.30
2006,08,15,15,13,19.20
2006,08,15,15,14,19.10
2006,08,15,15,15,19.10
2006,08,15,15,16,19.00
2006,08,15,15,17,18.90
2006,08,15,15,18,18.90
2006,08,15,15,19,18.90
2006,08,15,15,20,18.80
2006,08,15,15,21,18.90
2006,08,15,15,22,18.90
2006,08,15,15,23,18.80
2006,08,15,15,24,18.80
2006,08,15,15,25,18.70
2006,08,15,15,26,18.60
2006,08,15,15,27,18.50
2006,08,15,15,28,18.50
2006,08,15,15,29,18.50
2006,08,15,15,30,18.50
2006,08,15,15,31,18.50
2006,08,15,15,32,18.50
2006,08,15,15,33,18.40
2006,08,15,15,34,18.20
2006,08,15,15,35,18.30
2006,08,15,15,36,18.30
2006,08,15,15,37,18.20
2006,08,15,15,38,18.20
2006,08,15,15,39,18.00
2006,08,15,15,40,17.90
2006,08,15,15,41,17.70
2006,08,15,15,42,17.60
2006,08,15,15,43,17.50
2006,08,15,15,44,17.40
2006,08,15,15,45,17.30
2006,08,15,15,46,17.30
2006,08,15,15,47,17.20
2006,08,15,15,48,17.10
2006,08,15,15,49,17.10
2006,08,15,15,50,17.10
2006,08,15,15,51,17.10
2006,08,15,15,52,17.30
2006,08,15,15,53,17.30
2006,08,15,15,54,17.30
2006,08,15,15,55,17.40
2006,08,15,15,56,17.40
2006,08,15,15,57,17.50
2006,08,15,15,58,17.50
2006,08,15,15,59,17.60
2006,08,15,16,00,17.80
2006,08,15,16,01,17.90
2006,08,15,16,02,17.90
2006,08,15,16,03,18.00
2006,08,15,16,04,18.10
2006,08,15,16,05,18.00
2006,08,15,16,06,17.90
2006,08,15,16,07,17.80
2006,08,15,16,08,17.70
2006,08,15,16,09,17.60
2006,08,15,16,10,17.50
2006,08,15,16,11,17.50
2006,08,15,16,12,17.50
2006,08,15,16,13,17.50
2006,08,15,16,14,17.50
2006,08,15,16,15,17.60
2006,08,15,16,16,17.70
2006,08,15,16,17,17.80
2006,08,15,16,18,17.70
2006,08,15,16,19,17.70
2006,08,15,16,20,17.60
2006,08,15,16,21,17.60
2006,08,15,16,22,17.50
2006,08,15,16,23,17.40
2006,08,15,16,24,17.40
2006,08,15,16,25,17.50
2006,08,15,16,26,17.70
2006,08,15,16,27,17.70
2006,08,15,16,28,17.70
2006,08,15,16,29,17.80
2006,08,15,16,30,17.80
2006,08,15,16,31,17.70
2006,08,15,16,32,17.70
2006,08,15,16,33,17.70
2006,08,15,16,34,17.80
2006,08,15,16,35,17.80
2006,08,15,16,36,17.90
2006,08,15,16,37,17.90
2006,08,15,16,38,17.90
2006,08,15,16,39,17.90
2006,08,15,16,40,17.90
2006,08,15,16,41,17.90
2006,08,15,16,42,17.80
2006,08,15,16,43,17.90
2006,08,15,16,44,17.90
2006,08,15,16,45,18.10
2006,08,15,16,46,18.10
2006,08,15,16,47,18.20
2006,08,15,16,48,18.20
2006,08,15,16,49,18.10
2006,08,15,16,50,18.00
2006,08,15,16,51,17.90
2006,08,15,16,52,17.90
2006,08,15,16,53,17.90
2006,08,15,16,54,17.90
2006,08,15,16,55,17.90
2006,08,15,16,56,17.90
2006,08,15,16,57,17.90
2006,08,15,16,58,18.10
2006,08,15,16,59,18.20
2006,08,15,17,00,18.30
2006,08,15,17,01,18.40
2006,08,15,17,02,18.30
2006,08,15,17,03,18.20
2006,08,15,17,04,18.10
2006,08,15,17,05,18.00
2006,08,15,17,06,17.90
2006,08,15,17,07,17.90
2006,08,15,17,08,17.90
2006,08,15,17,09,17.90
2006,08,15,17,10,17.80
2006,08,15,17,11,17.70
2006,08,15,17,12,17.70
2006,08,15,17,13,17.70
2006,08,15,17,14,17.70
2006,08,15,17,15,17.60
2006,08,15,17,16,17.70
2006,08,15,17,17,17.70
2006,08,15,17,18,17.70
2006,08,15,17,19,17.60